Location: Newark
(39.6889°N, 28.1522°E)
Time: 09:22:06
(UTC+00:00)

Hubble Space Telescope - Visible Passes

Search period start: 20 March 2019 00:00
Search period end: 30 March 2019 00:00
Orbit: 537 x 540 km, 28.5° (Epoch: 19 March)

Date Brightness Start Highest point End Pass type
(mag) Time Alt. Az. Time Alt. Az. Time Alt. Az.
25 Mar 3.4 18:32:18 10° SSW 18:32:24 10° SSW 18:32:24 10° SSW visible
26 Mar 3.1 18:21:35 10° SW 18:22:42 14° SSW 18:22:42 14° SSW visible
27 Mar 2.8 18:10:56 10° SW 18:12:57 16° S 18:12:57 16° S visible
28 Mar 2.6 18:00:19 10° SW 18:03:04 17° S 18:03:09 17° S visible
29 Mar 2.6 17:49:46 10° SW 17:52:27 17° S 17:53:19 16° SSE visible
